This demonstration page uses our WeatherBlox Daily Observations layout. Learn more.

Left ArrowRight Arrow

Hourly Observations for September 13, 2019

Temp ( °F °C ) Dew Point ( °F °C ) Humidity (%) Winds ( mph kmh ) Pressure ( in mb ) Visibility ( mi km ) Precip ( " mm )
12:53 am 00:53 Clear 74 23.3 67 19.4 79 79 Calm 30.09 1019 10 16 0.00 0.00
1:53 am 01:53 Clear 71 21.7 67 19.4 87 87 Calm 30.09 1019 10 16 0.00 0.00
2:53 am 02:53 Clear 70 21.1 67 19.4 90 90 Calm 30.10 1019 10 16 0.00 0.00
3:53 am 03:53 Clear 69 20.6 66 18.9 90 90 Calm 30.09 1019 10 16 0.00 0.00
4:53 am 04:53 Clear 69 20.6 66 18.9 90 90 Calm 30.09 1019 10 16 0.00 0.00
5:53 am 05:53 Clear 70 21.1 66 18.9 87 87 Calm 30.10 1019 10 16 0.00 0.00
6:53 am 06:53 Clear 69 20.6 66 18.9 90 90 Calm 30.11 1020 10 16 0.00 0.00
7:53 am 07:53 Sunny 68 20 66 18.9 93 93 Calm 30.13 1020 9 14 0.00 0.00
8:53 am 08:53 Sunny 74 23.3 68 20 82 82 Calm 30.15 1021 10 16 0.00 0.00
9:53 am 09:53 Sunny 81 27.2 67 19.4 62 62 Calm 30.16 1021 10 16 0.00 0.00
10:53 am 10:53 Sunny 85 29.4 66 18.9 53 53 SW 3 6 30.16 1021 10 16 0.00 0.00
11:53 am 11:53 Sunny 89 31.7 66 18.9 47 47 Calm 30.15 1021 10 16 0.00 0.00
12:53 pm 12:53 Sunny 93 33.9 65 18.3 40 40 NNE 6 9 30.14 1021 10 16 0.00 0.00
1:53 pm 13:53 Sunny 94 34.4 63 17.2 36 36 Calm 30.13 1020 10 16 0.00 0.00
2:53 pm 14:53 Sunny 95 35 63 17.2 35 35 E 9 15 30.10 1019 10 16 0.00 0.00
3:53 pm 15:53 Sunny 96 35.6 61 16.1 31 31 ESE 6 9 30.08 1019 10 16 0.00 0.00
4:53 pm 16:53 Sunny 94 34.4 62 16.7 35 35 SE 10 17 30.07 1018 10 16 0.00 0.00
5:53 pm 17:53 Sunny 93 33.9 64 17.8 38 38 SSE 8 13 30.06 1018 10 16 0.00 0.00
6:53 pm 18:53 Sunny 93 33.9 63 17.2 37 37 ESE 5 7 30.07 1018 10 16 0.00 0.00
7:41 pm 19:41 Sunny with Nearby Thunderstorms 91 32.8 66 18.9 44 44 ESE 5 7 30.05 1018 10 16 0.00 0.00
7:53 pm 19:53 Partly Cloudy with Nearby Thunderstorms 90 32.2 66 18.9 45 45 SE 6 9 30.09 1019 10 16 0.00 0.00
8:15 pm 20:15 Cloudy 90 32.2 66 18.9 45 45 ESE 5 7 30.08 1019 10 16 0.00 0.00
8:22 pm 20:22 Cloudy with Nearby Thunderstorms 89 31.7 67 19.4 48 48 ESE 6 9 30.08 1019 10 16 0.00 0.00
8:39 pm 20:39 Mostly Cloudy 89 31.7 66 18.9 47 47 SE 7 11 30.09 1019 10 16 0.00 0.00
8:53 pm 20:53 Partly Cloudy with Nearby Thunderstorms 88 31.1 66 18.9 48 48 ESE 5 7 30.12 1020 10 16 0.00 0.00
9:09 pm 21:09 Mostly Cloudy with Thunderstorms 88 31.1 66 18.9 48 48 E 7 11 30.10 1019 10 16 0.00 0.00
9:53 pm 21:53 Cloudy with Thunderstorms 83 28.3 66 18.9 57 57 NW 5 7 30.14 1021 10 16 0.00 0.00
10:01 pm 22:01 Mostly Cloudy 82 27.8 66 18.9 58 58 NW 7 11 30.13 1020 10 16 0.00 0.00
10:24 pm 22:24 Mostly Clear with Nearby Thunderstorms 77 25 67 19.4 71 71 NW 8 13 30.15 1021 10 16 0.00 0.00
10:44 pm 22:44 Mostly Cloudy with Thunderstorms 78 25.6 68 20 71 71 NE 15 24 30.18 1022 10 16 0.00 0.00
10:53 pm 22:53 Cloudy with Thunderstorms 77 25 69 20.6 77 77 NE 24 39 30.20 1023 10 16 0.00 0.00
11:02 pm 23:02 Cloudy with Thunderstorms 75 23.9 71 21.7 88 88 E 14 22 30.23 1024 3 4 0.01 0.25
11:05 pm 23:05 Cloudy with Strong Thunderstorms 74 23.3 71 21.7 91 91 ENE 23 37 30.23 1024 1 2 0.03 0.76
11:10 pm 23:10 Cloudy with Strong Thunderstorms 72 22.2 70 21.1 94 94 NNE 15 24 30.24 1024 1 1 0.06 1.52
11:20 pm 23:20 Cloudy with Strong Thunderstorms 72 22.2 68 20 87 87 ENE 8 13 30.24 1024 1 1 0.16 4.06
11:34 pm 23:34 Mostly Cloudy with Strong Thunderstorms 72 22.2 69 20.6 91 91 NNE 12 19 30.23 1024 1 2 0.26 6.60
11:41 pm 23:41 Cloudy with Thunderstorms 72 22.2 69 20.6 91 91 NNE 13 20 30.22 1023 3 5 0.30 7.62
11:48 pm 23:48 Cloudy with Thunderstorms 72 22 70 21 94 94 NNE 9 15 30.21 1023 7 11 0.34 8.64
11:53 pm 23:53 Cloudy with Strong Thunderstorms 72 22.2 69 20.6 91 91 NNE 7 11 30.21 1023 5 8 0.37 9.40

Powered by AerisWeather